DW5963 Weather Reports


Display with metric or nautical units.
time (UTC)temp
F
wind
direction
speed
MPH
gust
MPH
rain 1hr
in
rain 24hr
in
rain mn
in
humidity
%
barometer
mb
20260502220523 68 360 17.0 0.0 0.00 0.00 0.00 27 1013.0
20260502220025 69 360 16.0 0.0 0.00 0.00 0.00 27 1012.9
20260502215522 67 360 16.0 0.0 0.00 0.00 0.00 28 1012.9
20260502215021 69 360 16.0 0.0 0.00 0.00 0.00 27 1013.1
20260502214522 70 360 15.0 0.0 0.00 0.00 0.00 27 1013.0
20260502214022 69 360 15.0 0.0 0.00 0.00 0.00 27 1013.1
20260502213522 69 360 15.0 0.0 0.00 0.00 0.00 28 1013.2
20260502213024 68 360 17.0 0.0 0.00 0.00 0.00 29 1013.3
20260502212522 70 360 17.0 0.0 0.00 0.00 0.00 27 1013.2
20260502212021 70 360 17.0 0.0 0.00 0.00 0.00 28 1013.2
20260502211520 70 360 17.0 0.0 0.00 0.00 0.00 28 1013.3
20260502211021 70 360 16.0 0.0 0.00 0.00 0.00 28 1013.1
20260502210521 70 360 16.0 0.0 0.00 0.00 0.00 29 1013.3
20260502210021 70 360 15.0 0.0 0.00 0.00 0.00 29 1013.2
20260502205520 70 360 16.0 0.0 0.00 0.00 0.00 30 1013.2
20260502205023 69 360 15.0 0.0 0.00 0.00 0.00 31 1013.3
20260502204519 70 360 14.0 0.0 0.00 0.00 0.00 30 1013.2
20260502204019 70 360 16.0 0.0 0.00 0.00 0.00 30 1013.3
20260502203521 70 360 15.0 0.0 0.00 0.00 0.00 31 1013.3
20260502203018 69 360 15.0 0.0 0.00 0.00 0.00 31 1013.1
20260502202521 70 360 18.0 0.0 0.00 0.00 0.00 32 1013.3
20260502202018 70 360 18.0 0.0 0.00 0.00 0.00 32 1013.3
20260502201518 69 360 16.0 0.0 0.00 0.00 0.00 31 1013.1
20260502201018 70 360 16.0 0.0 0.00 0.00 0.00 32 1013.4
20260502200521 69 360 16.0 0.0 0.00 0.00 0.00 33 1013.2
20260502200017 69 360 14.0 0.0 0.00 0.00 0.00 33 1013.3
20260502195517 69 360 13.0 0.0 0.00 0.00 0.00 34 1013.5
20260502195017 68 360 14.0 0.0 0.00 0.00 0.00 35 1013.5
20260502194528 69 360 14.0 0.0 0.00 0.00 0.00 33 1013.6
20260502194016 69 360 14.0 0.0 0.00 0.00 0.00 34 1013.6
20260502193516 69 360 14.0 0.0 0.00 0.00 0.00 34 1013.7
20260502193016 69 360 14.0 0.0 0.00 0.00 0.00 34 1013.7
20260502192517 68 360 15.0 0.0 0.00 0.00 0.00 34 1013.8
20260502192016 69 360 16.0 0.0 0.00 0.00 0.00 34 1013.8
20260502191516 68 360 16.0 0.0 0.00 0.00 0.00 33 1013.8
20260502191015 68 360 17.0 0.0 0.00 0.00 0.00 34 1013.7
20260502190516 68 360 17.0 0.0 0.00 0.00 0.00 34 1013.7
20260502190015 68 360 16.0 0.0 0.00 0.00 0.00 33 1013.8
20260502185517 68 360 17.0 0.0 0.00 0.00 0.00 34 1013.8
20260502185015 68 360 17.0 0.0 0.00 0.00 0.00 34 1013.8
20260502184516 68 360 17.0 0.0 0.00 0.00 0.00 34 1013.7
20260502184017 68 360 17.0 0.0 0.00 0.00 0.00 33 1013.8
20260502183514 69 360 16.0 0.0 0.00 0.00 0.00 32 1013.7
20260502183014 69 360 16.0 0.0 0.00 0.00 0.00 32 1013.7
20260502182514 68 360 17.0 0.0 0.00 0.00 0.00 33 1013.7
20260502182015 68 360 17.0 0.0 0.00 0.00 0.00 32 1013.7
20260502181527 68 360 17.0 0.0 0.00 0.00 0.00 32 1013.7
20260502181014 67 360 16.0 0.0 0.00 0.00 0.00 33 1013.7
20260502180514 67 360 16.0 0.0 0.00 0.00 0.00 33 1013.8
20260502170509 64 360 17.0 0.0 0.00 0.00 0.00 35 1013.7
20260502164007 64 360 16.0 0.0 0.00 0.00 0.00 37 1013.7
20260502163507 65 360 15.0 0.0 0.00 0.00 0.00 37 1013.6
20260502163016 65 360 13.0 0.0 0.00 0.00 0.00 36 1013.6
20260502162510 65 360 12.0 0.0 0.00 0.00 0.00 38 1013.8
20260502162007 64 360 12.0 0.0 0.00 0.00 0.00 38 1013.7
20260502161506 63 360 13.0 0.0 0.00 0.00 0.00 39 1013.6
20260502161006 63 360 12.0 0.0 0.00 0.00 0.00 39 1013.5
20260502160506 63 360 12.0 0.0 0.00 0.00 0.00 39 1013.5
20260502152001 62 360 12.0 0.0 0.00 0.00 0.00 43 1013.4
20260502151631 61 360 12.0 0.0 0.00 0.00 0.00 44 1013.4
20260502151059 61 360 11.0 0.0 0.00 0.00 0.00 44 1013.4
20260502150559 61 360 12.0 0.0 0.00 0.00 0.00 44 1013.3
20260502150111 61 360 12.0 0.0 0.00 0.00 0.00 43 1013.3
20260502130543 48 360 2.0 0.0 0.00 0.00 0.00 63 1013.5
20260502123544 41 360 1.0 0.0 0.00 0.00 0.00 69 1013.2
20260502123048 39 360 1.0 0.0 0.00 0.00 0.00 68 1013.2
20260502122539 38 360 1.0 0.0 0.00 0.00 0.00 67 1013.3
20260502121539 37 360 0.0 0.0 0.00 0.00 0.00 65 1013.2
20260502121039 37 360 0.0 0.0 0.00 0.00 0.00 65 1013.2
20260502120539 37 360 1.0 0.0 0.00 0.00 0.00 65 1013.2
20260502115539 37 360 0.0 0.0 0.00 0.00 0.00 66 1013.2
20260502115038 37 360 0.0 0.0 0.00 0.00 0.00 66 1013.2
20260502114538 37 360 1.0 0.0 0.00 0.00 0.00 66 1013.2
20260502114038 36 360 1.0 0.0 0.00 0.00 0.00 65 1013.2
20260502113536 37 360 1.0 0.0 0.00 0.00 0.00 63 1013.3
20260502113034 38 360 1.0 0.0 0.00 0.00 0.00 62 1013.3
20260502112533 38 360 0.0 0.0 0.00 0.00 0.00 61 1013.3
20260502111535 40 360 0.0 0.0 0.00 0.00 0.00 60 1013.2
20260502111033 40 360 1.0 0.0 0.00 0.00 0.00 60 1013.3
20260502110532 40 360 2.0 0.0 0.00 0.00 0.00 60 1013.2
20260502110033 40 360 3.0 0.0 0.00 0.00 0.00 60 1013.2
20260502105532 40 360 4.0 0.0 0.00 0.00 0.00 60 1013.4
20260502105030 40 360 3.0 0.0 0.00 0.00 0.00 59 1013.4
20260502104532 40 360 1.0 0.0 0.00 0.00 0.00 57 1013.5
20260502104029 41 360 1.0 0.0 0.00 0.00 0.00 56 1013.3
20260502103529 42 360 1.0 0.0 0.00 0.00 0.00 54 1013.4
20260502103025 43 360 1.0 0.0 0.00 0.00 0.00 53 1013.3
20260502102529 44 360 1.0 0.0 0.00 0.00 0.00 53 1013.4
20260502101522 44 360 1.0 0.0 0.00 0.00 0.00 52 1013.7
20260502101022 44 360 1.0 0.0 0.00 0.00 0.00 53 1013.2
20260502100522 44 360 2.0 0.0 0.00 0.00 0.00 52 1013.2
20260502091512 47 360 2.0 0.0 0.00 0.00 0.00 48 1013.5
20260502091012 47 360 1.0 0.0 0.00 0.00 0.00 47 1013.6
20260502090512 47 360 1.0 0.0 0.00 0.00 0.00 47 1013.5
20260502071058 46 360 2.0 0.0 0.00 0.00 0.00 45 1015.0
20260502070558 46 360 2.0 0.0 0.00 0.00 0.00 45 1014.9
20260502070059 46 360 2.0 0.0 0.00 0.00 0.00 45 1014.8
20260502065556 46 360 2.0 0.0 0.00 0.00 0.00 44 1014.9
20260502065056 46 360 2.0 0.0 0.00 0.00 0.00 44 1015.2
20260502064606 46 360 2.0 0.0 0.00 0.00 0.00 44 1015.2
20260502064053 46 360 2.0 0.0 0.00 0.00 0.00 43 1015.2
20260502063552 47 360 1.0 0.0 0.00 0.00 0.00 42 1015.2
20260502063052 47 360 3.0 0.0 0.00 0.00 0.00 42 1015.2
20260502062555 48 360 3.0 0.0 0.00 0.00 0.00 42 1015.3
20260502061610 48 360 3.0 0.0 0.00 0.00 0.00 40 1015.3
20260502061051 49 360 3.0 0.0 0.00 0.00 0.00 41 1015.4
20260502060552 48 360 3.0 0.0 0.00 0.00 0.00 41 1015.4
20260502060050 48 360 3.0 0.0 0.00 0.00 0.00 41 1015.4
20260502055550 47 360 1.0 0.0 0.00 0.00 0.00 42 1015.5
20260502055051 46 360 1.0 0.0 0.00 0.00 0.00 44 1015.5
20260502054550 46 360 1.0 0.0 0.00 0.00 0.00 44 1015.6
20260502054051 45 360 2.0 0.0 0.00 0.00 0.00 45 1015.7
20260502053549 44 360 2.0 0.0 0.00 0.00 0.00 46 1015.6
20260502053057 45 360 2.0 0.0 0.00 0.00 0.00 45 1015.7
20260502052549 45 360 2.0 0.0 0.00 0.00 0.00 45 1015.7
20260502051549 46 360 4.0 0.0 0.00 0.00 0.00 44 1015.8
20260502051048 45 360 3.0 0.0 0.00 0.00 0.00 45 1015.8
20260502050547 44 360 2.0 0.0 0.00 0.00 0.00 46 1015.9
20260502050047 44 360 0.0 0.0 0.00 0.00 0.00 44 1016.0
20260502045551 45 360 0.0 0.0 0.00 0.00 0.00 43 1016.1
20260502045046 46 360 1.0 0.0 0.00 0.00 0.00 43 1016.1
20260502044547 46 360 3.0 0.0 0.00 0.00 0.00 43 1016.0
20260502044046 46 360 3.0 0.0 0.00 0.00 0.00 44 1016.0
20260502043547 46 360 3.0 0.0 0.00 0.00 0.00 42 1016.0
20260502043052 46 360 2.0 0.0 0.00 0.00 0.00 42 1016.1
20260502042545 47 360 2.0 0.0 0.00 0.00 0.00 40 1016.1
20260502041550 48 360 3.0 0.0 0.00 0.00 0.00 41 1016.2
20260502041047 47 360 3.0 0.0 0.00 0.00 0.00 42 1016.2
20260502040544 46 360 2.0 0.0 0.00 0.00 0.00 43 1016.2
20260502040046 46 360 1.0 0.0 0.00 0.00 0.00 43 1016.3
20260502035543 46 360 1.0 0.0 0.00 0.00 0.00 42 1016.3
20260502035043 46 360 0.0 0.0 0.00 0.00 0.00 43 1016.5
20260502034545 46 360 0.0 0.0 0.00 0.00 0.00 42 1016.6
20260502034042 46 360 0.0 0.0 0.00 0.00 0.00 42 1016.7
20260502033542 46 360 0.0 0.0 0.00 0.00 0.00 43 1016.7
20260502033041 46 360 0.0 0.0 0.00 0.00 0.00 43 1016.7
20260502032541 46 360 0.0 0.0 0.00 0.00 0.00 43 1016.8
20260502031543 46 360 0.0 0.0 0.00 0.00 0.00 41 1016.8
20260502031041 47 360 0.0 0.0 0.00 0.00 0.00 40 1016.8
20260502030540 48 360 1.0 0.0 0.00 0.00 0.00 40 1016.8
20260502030041 50 360 2.0 0.0 0.00 0.00 0.00 39 1016.8
20260502025542 50 360 2.0 0.0 0.00 0.00 0.00 39 1016.8
20260502025044 51 360 2.0 0.0 0.00 0.00 0.00 39 1016.7
20260502024541 51 360 2.0 0.0 0.00 0.00 0.00 38 1016.7
20260502024040 52 360 3.0 0.0 0.00 0.00 0.00 38 1016.7
20260502023542 52 360 2.0 0.0 0.00 0.00 0.00 38 1016.6
20260502023040 52 360 1.0 0.0 0.00 0.00 0.00 37 1016.7
20260502022539 52 360 1.0 0.0 0.00 0.00 0.00 36 1016.7
20260502021538 54 360 2.0 0.0 0.00 0.00 0.00 35 1016.7
20260502021038 55 360 3.0 0.0 0.00 0.00 0.00 34 1016.7
20260502020538 56 360 3.0 0.0 0.00 0.00 0.00 33 1016.7
20260502020038 57 360 3.0 0.0 0.00 0.00 0.00 32 1016.6
20260502015542 58 360 3.0 0.0 0.00 0.00 0.00 32 1016.7
20260502015041 59 360 3.0 0.0 0.00 0.00 0.00 30 1016.7
20260502014538 60 360 4.0 0.0 0.00 0.00 0.00 29 1016.8
20260502014037 61 360 4.0 0.0 0.00 0.00 0.00 28 1016.7
20260502013536 62 360 4.0 0.0 0.00 0.00 0.00 27 1016.7
20260502013036 63 360 4.0 0.0 0.00 0.00 0.00 26 1016.9
20260502012536 63 360 4.0 0.0 0.00 0.00 0.00 26 1016.8
20260502011536 65 360 5.0 0.0 0.00 0.00 0.00 25 1016.8
20260502011035 65 360 6.0 0.0 0.00 0.00 0.00 25 1016.9
20260502010535 66 360 6.0 0.0 0.00 0.00 0.00 24 1016.9
20260502010034 66 360 6.0 0.0 0.00 0.00 0.00 24 1017.1
20260502005534 66 360 6.0 0.0 0.00 0.00 0.00 23 1017.1
20260502005034 67 360 7.0 0.0 0.00 0.00 0.00 23 1017.1
20260502004535 67 360 7.0 0.0 0.00 0.00 0.00 23 1017.1
20260502004036 67 360 7.0 0.0 0.00 0.00 0.00 23 1017.1
20260502003534 67 360 7.0 0.0 0.00 0.00 0.00 23 1017.2
20260502003033 67 360 7.0 0.0 0.00 0.00 0.00 22 1017.3
20260502002533 67 360 7.0 0.0 0.00 0.00 0.00 22 1017.3
20260502001532 68 360 5.0 0.0 0.00 0.00 0.00 22 1017.4
20260502001032 68 360 4.0 0.0 0.00 0.00 0.00 21 1017.5
20260502000530 68 360 5.0 0.0 0.00 0.00 0.00 22 1017.5
20260502000031 67 360 7.0 0.0 0.00 0.00 0.00 22 1017.5
20260501235530 67 360 7.0 0.0 0.00 0.00 0.00 22 1017.5
20260501235030 68 360 6.0 0.0 0.00 0.00 0.00 21 1017.5
20260501234531 68 360 5.0 0.0 0.00 0.00 0.00 22 1017.5
20260501234032 68 360 5.0 0.0 0.00 0.00 0.00 21 1017.6
20260501233530 67 360 7.0 0.0 0.00 0.00 0.00 21 1017.7
20260501233028 67 360 7.0 0.0 0.00 0.00 0.00 22 1017.8
20260501232528 68 360 5.0 0.0 0.00 0.00 0.00 22 1017.8
20260501231528 68 360 5.0 0.0 0.00 0.00 0.00 21 1017.9
20260501231028 68 360 5.0 0.0 0.00 0.00 0.00 21 1017.9
20260501230530 68 360 5.0 0.0 0.00 0.00 0.00 21 1017.9
20260501230027 68 360 4.0 0.0 0.00 0.00 0.00 21 1018.1
20260501225526 68 360 5.0 0.0 0.00 0.00 0.00 21 1018.2
20260501225028 67 360 6.0 0.0 0.00 0.00 0.00 21 1018.2
20260501224530 67 360 5.0 0.0 0.00 0.00 0.00 21 1018.2
20260501224026 68 360 5.0 0.0 0.00 0.00 0.00 22 1018.1
20260501223525 68 360 4.0 0.0 0.00 0.00 0.00 22 1018.2
20260501223025 67 360 3.0 0.0 0.00 0.00 0.00 22 1018.4
20260501222526 67 360 3.0 0.0 0.00 0.00 0.00 22 1018.4
20260501221525 67 360 4.0 0.0 0.00 0.00 0.00 22 1018.6
20260501221023 67 360 6.0 0.0 0.00 0.00 0.00 21 1018.7